User: anonymous   Login
Location: Frydek-Mistek
(49.6830°N, 18.3330°E)
Time: 15:22:03
(UTC+02:00)
Language:

Courier 1B Rocket - Orbit

View from above orbital plane
View from above orbital plane
View from above satellite
View from above satellite

Ground track
Ground track

The orbit data is extracted from the following two-line orbital elements,

1    59U 60013B   16178.90005959 +.00000096 +00000-0 +12792-4 0  9994
2    59 028.2485 114.3104 0189092 343.2185 016.2170 13.52939839749878
Epoch (UTC): 26 June 2016 21:36:05
Eccentricity: 0.0189092
inclination: 28.2485°
perigee height: 921 km
apogee height: 1202 km
right ascension of ascending node: 114.3104°
argument of perigee: 343.2185°
revolutions per day: 13.52939839
mean anomaly at epoch: 16.2170°
orbit number at epoch: 74987

The dashed part of the orbit path shows where the satellite is in the earth's shadow,  

DLR